Location: Flensburg
(54.6357°N, 9.5142°E)
Time: 00:17:22
(UTC+01:00)

ISS - Pass Details

Date: 10 January 2018
Orbit: 401 x 406 km, 51.6° (Epoch: 17 January)

Event Time Altitude Azimuth Distance (km) Brightness Sun altitude
Exits shadow 05:00:03 11° 106° (ESE) 1,385 -0.4 -30.6°
Drops below altitude 10° 05:00:15 10° 105° (ESE) 1,466 -0.2 -30.6°
Sets 05:02:22 0° 100° (E) 2,327 1.1 -30.3°
